Weather History for Copper Mountain, CO

Change the Weather History Date:

Friday, March 14, 2014

  Actual Average (KLXV) Record (KLXV)
Temperature  
Mean Temperature 26 °F -  
Max Temperature 33 °F 37 °F 48 °F (2008)
Min Temperature 19 °F 11 °F -12 °F (1988)
Degree Days  
Heating Degree Days 39 41  
Month to date heating degree days 600  
Since 1 July heating degree days 8310  
Cooling Degree Days 0 0  
Month to date cooling degree days 0  
Year to date cooling degree days 0  
Moisture  
Dew Point 6 °F    
Average Humidity 47    
Maximum Humidity 80    
Minimum Humidity 14    
Precipitation  
Precipitation 0.00 in 0.03 in 0.62 in (2008)
Month to date precipitation 0.39  
Year to date precipitation 1.71  
Sea Level Pressure  
Sea Level Pressure 30.11 in    
Wind  
Wind Speed 15 mph (WSW)    
Max Wind Speed 30 mph    
Max Gust Speed 38 mph    
Visibility 10 miles    
Events      
T = Trace of Precipitation, MM = Missing Value Source: NWS Daily Summary

Daily Weather History Graph

Daily Weather History Graph

Search for Another Location

Airport:

Trip Planner

Search our weather history database for the weather conditions in past years. The results will help you decide how hot, cold, wet, or windy it might be!

Date:

Astronomy

Mar. 14, 2014 Rise Set
Actual Time 7:17 AM MDT 7:10 PM MDT
Civil Twilight 6:50 AM MDT 7:37 PM MDT
Nautical Twilight 6:19 AM MDT 8:08 PM MDT
Astronomical Twilight 5:48 AM MDT 8:40 PM MDT
Moon 5:35 PM MDT (3/14) 5:58 AM MDT (3/14)
Length of Visible Light 12h 46m
Length of Day
11h 53m
Waxing Gibbous, 96% of the Moon is Illuminated
Mar 14
Waxing Gibbous
Mar 16
Full
Mar 23
Last Quarter
Mar 30
New
Apr 7
First Quarter

Hourly Weather History & Observations

Time (MDT) Temp. Windchill Dew Point Humidity Pressure Visibility Wind Dir Wind Speed Gust Speed Precip Events Conditions
12:16 AM 23.0 °F - 17.6 °F 80% 30.07 in 10.0 mi North - - N/A   Overcast
12:36 AM 23.0 °F 6.6 °F 17.6 °F 80% 30.07 in 10.0 mi West 25.3 mph 28.8 mph N/A   Overcast
12:56 AM 23.0 °F 8.0 °F 17.6 °F 80% 30.08 in 10.0 mi West 20.7 mph 24.2 mph N/A   Overcast
1:16 AM 23.0 °F 8.0 °F 17.6 °F 80% 30.07 in 10.0 mi West 20.7 mph 24.2 mph N/A   Overcast
1:36 AM 23.0 °F 8.0 °F 17.6 °F 80% 30.07 in 10.0 mi West 20.7 mph 28.8 mph N/A   Mostly Cloudy
1:56 AM 23.0 °F 8.7 °F 17.6 °F 80% 30.08 in 10.0 mi West 18.4 mph 26.5 mph N/A   Mostly Cloudy
2:16 AM 23.0 °F 10.1 °F 17.6 °F 80% 30.10 in 10.0 mi West 15.0 mph 18.4 mph N/A   Mostly Cloudy
2:36 AM 23.0 °F 13.1 °F 17.6 °F 80% 30.10 in 10.0 mi West 9.2 mph - N/A   Overcast
2:56 AM 23.0 °F 15.8 °F 17.6 °F 80% 30.10 in 7.0 mi West 5.8 mph - N/A   Overcast
3:16 AM 23.0 °F 17.0 °F 17.6 °F 80% 30.10 in 10.0 mi West 4.6 mph - N/A   Overcast
3:36 AM 19.4 °F 7.9 °F 14.0 °F 80% 30.09 in 10.0 mi West 10.4 mph - N/A   Scattered Clouds
3:56 AM 21.2 °F 9.5 °F 14.0 °F 74% 30.08 in 10.0 mi West 11.5 mph - N/A   Clear
4:16 AM 19.4 °F 12.8 °F 14.0 °F 80% 30.08 in 10.0 mi West 4.6 mph - N/A   Clear
4:36 AM 19.4 °F 10.4 °F 14.0 °F 80% 30.08 in 10.0 mi West 6.9 mph - N/A   Clear
4:56 AM 19.4 °F 8.6 °F 12.2 °F 74% 30.08 in 10.0 mi West 9.2 mph - N/A   Clear
5:16 AM 19.4 °F 7.9 °F 12.2 °F 74% 30.08 in 10.0 mi West 10.4 mph - N/A   Clear
5:36 AM 21.2 °F 5.6 °F 12.2 °F 68% 30.08 in 10.0 mi WNW 20.7 mph - N/A   Clear
5:56 AM 19.4 °F 9.5 °F 10.4 °F 68% 30.10 in 10.0 mi West 8.1 mph - N/A   Clear
6:16 AM 19.4 °F 6.6 °F 8.6 °F 63% 30.10 in 10.0 mi West 12.7 mph - N/A   Clear
6:36 AM 19.4 °F 6.0 °F 8.6 °F 63% 30.09 in 10.0 mi West 13.8 mph - N/A   Clear
6:56 AM 19.4 °F 9.5 °F 8.6 °F 63% 30.10 in 10.0 mi WSW 8.1 mph - N/A   Clear
7:16 AM 19.4 °F 10.4 °F 8.6 °F 63% 30.10 in 10.0 mi WSW 6.9 mph - N/A   Clear
7:36 AM 19.4 °F 6.0 °F 8.6 °F 63% 30.11 in 10.0 mi West 13.8 mph - N/A   Clear
7:56 AM 19.4 °F 7.2 °F 8.6 °F 63% 30.12 in 10.0 mi West 11.5 mph - N/A   Clear
8:16 AM 19.4 °F 7.2 °F 8.6 °F 63% 30.12 in 10.0 mi West 11.5 mph 16.1 mph N/A   Clear
8:36 AM 19.4 °F 9.5 °F 6.8 °F 58% 30.12 in 10.0 mi West 8.1 mph - N/A   Clear
8:56 AM 21.2 °F 10.9 °F 5.0 °F 50% 30.12 in 10.0 mi WSW 9.2 mph - N/A   Clear
9:16 AM 23.0 °F 11.7 °F 5.0 °F 46% 30.14 in 10.0 mi West 11.5 mph - N/A   Clear
9:36 AM 23.0 °F 18.4 °F 5.0 °F 46% 30.14 in 10.0 mi WSW 3.5 mph - N/A   Clear
9:56 AM 24.8 °F 16.9 °F 6.8 °F 46% 30.14 in 10.0 mi South 6.9 mph - N/A   Clear
10:16 AM 26.6 °F 20.0 °F 5.0 °F 40% 30.15 in 10.0 mi South 5.8 mph - N/A   Clear
10:36 AM 26.6 °F 19.1 °F 5.0 °F 40% 30.15 in 10.0 mi South 6.9 mph - N/A   Clear
10:56 AM 26.6 °F 21.2 °F 3.2 °F 37% 30.15 in 10.0 mi SSW 4.6 mph - N/A   Clear
11:16 AM 28.4 °F 23.3 °F 3.2 °F 34% 30.15 in 10.0 mi SW 4.6 mph - N/A   Clear
11:36 AM 28.4 °F 20.4 °F 3.2 °F 34% 30.15 in 10.0 mi South 8.1 mph - N/A   Clear
11:56 AM 28.4 °F 19.7 °F 3.2 °F 34% 30.15 in 10.0 mi South 9.2 mph - N/A   Clear
12:16 PM 28.4 °F 20.4 °F -0.4 °F 29% 30.15 in 10.0 mi SSW 8.1 mph - N/A   Clear
12:36 PM 30.2 °F 23.4 °F -0.4 °F 27% 30.14 in 10.0 mi SSW 6.9 mph - N/A   Clear
12:56 PM 32.0 °F 24.2 °F 1.4 °F 27% 30.14 in 10.0 mi SSW 9.2 mph - N/A   Clear
1:16 PM 32.0 °F 21.6 °F -2.2 °F 23% 30.14 in 10.0 mi West 15.0 mph 19.6 mph N/A   Clear
1:36 PM 33.8 °F 22.8 °F -4.0 °F 20% 30.13 in 10.0 mi West 18.4 mph 24.2 mph N/A   Clear
1:56 PM 33.8 °F 24.8 °F -4.0 °F 20% 30.13 in 10.0 mi WSW 12.7 mph 21.9 mph N/A   Clear
2:16 PM 33.8 °F 23.9 °F -4.0 °F 20% 30.12 in 10.0 mi West 15.0 mph 25.3 mph N/A   Clear
2:36 PM 33.8 °F 23.9 °F -4.0 °F 20% 30.12 in 10.0 mi West 15.0 mph 23.0 mph N/A   Clear
2:56 PM 33.8 °F 23.2 °F -5.8 °F 18% 30.12 in 10.0 mi WNW 17.3 mph 27.6 mph N/A   Clear
3:16 PM 33.8 °F 23.2 °F -11.2 °F 14% 30.12 in 10.0 mi West 17.3 mph 23.0 mph N/A   Clear
3:36 PM 33.8 °F 21.9 °F -4.0 °F 20% 30.11 in 10.0 mi West 21.9 mph 28.8 mph N/A   Clear
3:56 PM 33.8 °F 23.5 °F -4.0 °F 20% 30.12 in 10.0 mi West 16.1 mph 21.9 mph N/A   Clear
4:16 PM 33.8 °F 22.5 °F -0.4 °F 23% 30.12 in 10.0 mi West 19.6 mph 24.2 mph N/A   Clear
4:36 PM 33.8 °F 22.5 °F 3.2 °F 28% 30.11 in 10.0 mi West 19.6 mph 28.8 mph N/A   Clear
4:56 PM 33.8 °F 22.5 °F 3.2 °F 28% 30.10 in 10.0 mi West 19.6 mph 27.6 mph N/A   Clear
5:16 PM 33.8 °F 20.5 °F 5.0 °F 30% 30.10 in 10.0 mi West 27.6 mph 32.2 mph N/A   Clear
5:36 PM 33.8 °F 21.9 °F 5.0 °F 30% 30.10 in 10.0 mi West 21.9 mph 32.2 mph N/A   Clear
5:56 PM 32.0 °F 19.2 °F 3.2 °F 30% 30.10 in 10.0 mi West 23.0 mph 28.8 mph N/A   Clear
6:16 PM 32.0 °F 19.8 °F 1.4 °F 27% 30.10 in 10.0 mi West 20.7 mph 25.3 mph N/A   Clear
6:36 PM 32.0 °F 20.5 °F 1.4 °F 27% 30.11 in 10.0 mi West 18.4 mph 28.8 mph N/A   Clear
6:56 PM 30.2 °F 19.8 °F -2.2 °F 25% 30.12 in 10.0 mi West 13.8 mph - N/A   Clear
7:16 PM 28.4 °F 16.2 °F -2.2 °F 27% 30.12 in 10.0 mi West 17.3 mph - N/A   Clear
7:36 PM 28.4 °F 15.8 °F -0.4 °F 29% 30.12 in 10.0 mi West 18.4 mph - N/A   Clear
7:56 PM 26.6 °F 13.4 °F 3.2 °F 37% 30.11 in 10.0 mi West 18.4 mph 23.0 mph N/A   Clear
8:16 PM 24.8 °F 11.5 °F 5.0 °F 43% 30.10 in 10.0 mi WSW 17.3 mph 21.9 mph N/A   Clear
8:36 PM 26.6 °F 13.4 °F 5.0 °F 40% 30.11 in 10.0 mi WSW 18.4 mph 26.5 mph N/A   Clear
8:56 PM 26.6 °F 12.4 °F 3.2 °F 37% 30.10 in 10.0 mi West 21.9 mph 25.3 mph N/A   Clear
9:16 PM 26.6 °F 12.0 °F 3.2 °F 37% 30.10 in 10.0 mi West 23.0 mph 28.8 mph N/A   Clear
9:36 PM 26.6 °F 11.4 °F 5.0 °F 40% 30.10 in 10.0 mi West 25.3 mph - N/A   Clear
9:56 PM 26.6 °F 11.7 °F 5.0 °F 40% 30.10 in 10.0 mi West 24.2 mph 27.6 mph N/A   Clear
10:16 PM 26.6 °F 11.7 °F 5.0 °F 40% 30.10 in 10.0 mi West 24.2 mph 32.2 mph N/A   Clear
10:36 PM 26.6 °F 10.3 °F 3.2 °F 37% 30.09 in 10.0 mi West 29.9 mph 38.0 mph N/A   Clear
10:56 PM 24.8 °F 9.0 °F 3.2 °F 40% 30.08 in 10.0 mi WSW 25.3 mph 35.7 mph N/A   Clear
11:16 PM 24.8 °F - 3.2 °F 40% 30.09 in 10.0 mi North - - N/A   Clear
11:36 PM 24.8 °F 9.3 °F 5.0 °F 43% 30.08 in 10.0 mi West 24.2 mph 31.1 mph N/A   Clear
11:56 PM 24.8 °F 8.4 °F 5.0 °F 43% 30.08 in 10.0 mi West 27.6 mph 32.2 mph N/A   Clear